Location: Baix
(44.7118°N, 4.7648°E)
Time: 14:34:02
(UTC+00:00)

A-11 Canister half - Pass Details

Date: 01 December 2020
Orbit: 1517 x 1683 km, 47.2° (Epoch: 15 January)

Event Time Altitude Azimuth Distance (km) Brightness Sun altitude
Rises 17:59:57 0° 293° (WNW) 4,930 12.6 -20.4°
Reaches altitude 10° 18:03:37 10° 284° (WNW) 3,946 12.1 -21.0°
Maximum altitude 18:11:53 30° 229° (SW) 2,688 10.8 -22.5°
Drops below altitude 10° 18:20:08 10° 173° (S) 3,909 11.1 -23.9°
Sets 18:23:46 0° 163° (SSE) 4,876 11.5 -24.6°
